Regional Weather Roundup
Issued by NWS

Home | Current Version | Previous Version | Graphics & Text | Print | Product List | Glossary On
Versions: 1 2 3 4 5 6 7 8 9 10 11 12 13 14 15 16 17 18 19 20 21 22 23 24 25 26 27 28 29 30 31 32 33 34 35 36 37 38 39 40 41 42 43 44 45 46 47 48 49 50
000
ASUS43 KDMX 271301
RWRIA

WEATHER ROUNDUP FOR IOWA
NATIONAL WEATHER SERVICE DES MOINES IA
800 AM CDT THU JUL 27 2017

NOTE: "FAIR" INDICATES FEW OR NO CLOUDS BELOW 12,000 FEET WITH NO
SIGNIFICANT WEATHER AND/OR OBSTRUCTIONS TO VISIBILITY.

* - THESE STATIONS ARE NOT NWS STATIONS...THUS NOT UNDER NWS
QUALITY CONTROL.  THEY ALSO DO NOT REPORT WEATHER SUCH
AS PRECIPITATION OR FOG.

IAZ001>003-012>014-020>022-031>034-043>046-271400-
   NORTHWEST IOWA

CITY           SKY/WX    TMP DP  RH WIND       PRES   REMARKS
CARROLL *      SUNNY     66  64  94 N7        30.06R
CHEROKEE *     MOSUNNY   65  64  96 N7        30.09S
DENISON *      SUNNY     66  63  88 N8        30.08S
ORANGE CITY *  SUNNY     66  63  88 NE6       30.11R
SHELDON *      SUNNY     66  63  88 VRB3      30.09S
SIOUX CITY     SUNNY     68  64  87 NW6       30.10R
SPENCER        SUNNY     67  63  87 N3        30.10R
STORM LAKE *   SUNNY     68  63  83 N7        30.09R
$$

IAZ055>058-069>071-079>083-090>094-271400-
   SOUTHWEST IOWA

CITY           SKY/WX    TMP DP  RH WIND       PRES   REMARKS
ATLANTIC *     SUNNY     68  66  94 N7        30.04R
AUDUBON *      SUNNY     68  64  88 N7        30.06S
CLARINDA *     SUNNY     72  72 100 N8        30.04R
COUNCIL BLFS * SUNNY     68  68 100 N10       30.05S
CRESTON *      PTSUNNY   70  70 100 N12       30.04R
HARLAN  *      SUNNY     66  66 100 N9        30.09R
LAMONI         CLOUDY    72  70  93 N8        30.01R
RED OAK *      SUNNY     70  68  94 NE7       30.03R
SHENANDOAH *   SUNNY     72  68  88 N6        30.03S
$$

IAZ047>049-059>061-072>074-084-271400-
   CENTRAL IOWA

CITY           SKY/WX    TMP DP  RH WIND       PRES   REMARKS
AMES           SUNNY     70  67  90 N7        30.02S
ANKENY *       CLOUDY    70  66  88 N10       30.02R
BOONE *        SUNNY     70  64  83 N9        30.03S
CHARITON *     CLOUDY    72  70  94 N8        30.00R
DES MOINES     MOSUNNY   73  67  81 NE10      30.00R
GRINNELL*      MOSUNNY   72  69  91 N9        30.01S
KNOXVILLE *    MOSUNNY   73  68  83 N7        29.98S
MARSHALLTOWN   SUNNY     71  67  87 N7        30.01R
NEWTON *       PTSUNNY   72  70  94 NE12      30.01R
PELLA *        SUNNY     73  69  87 N5        30.00F
PERRY *          N/A     68  66  94 N6        30.04S
$$

IAZ004>006-015-016-023>025-035-036-271400-
   NORTH CENTRAL IOWA

CITY           SKY/WX    TMP DP  RH WIND       PRES   REMARKS
ALGONA *       SUNNY     68  66  94 N3        30.08R
ESTHERVILLE    SUNNY     65  64  97 N7        30.08R
FORT DODGE *   SUNNY     66  63  88 N5        30.06S
MASON CITY     SUNNY     67  63  87 N7        30.07R
FOREST CITY *    N/A     68  63  83 N5        30.06S
WEBSTER CITY * SUNNY     66  64  94 N3        30.03S
IOWA FALLS *     N/A     69  64  83 N6        30.04S
$$

IAZ007>011-017>019-026>030-037>042-050>054-066-271400-
   NORTHEAST IOWA

CITY           SKY/WX    TMP DP  RH WIND       PRES   REMARKS
CHARLES CITY * SUNNY     68  66  94 N6        30.05R
DECORAH *      SUNNY     68  64  88 N6        30.03R
DUBUQUE        SUNNY     72  70  93 NE13      29.99S
MONTICELLO *   SUNNY     73  70  88 NE6       29.98S
OELWEIN *      SUNNY     70  68  94 NE9       30.02S
WATERLOO       MOSUNNY   70  64  81 N9        30.00S
$$

IAZ064-065-067-068-078-271400-
   EAST CENTRAL IOWA

CITY           SKY/WX    TMP DP  RH WIND       PRES   REMARKS
DAVENPORT      CLOUDY    72  69  90 NE9       29.98S
IOWA CITY      CLOUDY    75  70  84 NE7       29.98R
MUSCATINE *    CLOUDY    73  70  88 NE9       29.97R
QUAD CITIES    CLOUDY    73  69  87 NE5       29.96R
$$

IAZ062-063-075>077-085>089-095>099-271400-
   SOUTHEAST IOWA

CITY           SKY/WX    TMP DP  RH WIND       PRES   REMARKS
BURLINGTON     CLOUDY    75  74  96 N7        29.96R FOG
FAIRFIELD *    CLOUDY    73  70  88 N7        29.98R
FORT MADISON * CLOUDY    73  73 100 N6        29.97R FOG
KEOKUK *       CLOUDY    73  73 100 N5        29.95R
OSKALOOSA *    CLOUDY    71  69  94 N3        29.99R
OTTUMWA        CLOUDY    73  71  93 N6        29.98R
WASHINGTON *   CLOUDY    73  72  94 N6        29.99R
$$

ABBREVIATIONS USED IN REMARKS
   TC - TEMPERATURES IN CELSIUS
  WCI - WIND CHILL INDEX
   HX - HEAT INDEX
  VSB - VISIBILITY
$$




USA.gov is the U.S. government's official web portal to all federal, state and local government web resources and services.